This demonstration page uses our WeatherBlox Daily Observations layout. Learn more.

Hourly Observations for June 21, 2015

Temp ( °F °C ) Dew Point ( °F °C ) Humidity (%) Winds ( mph kmh ) Pressure ( in mb ) Visibility ( mi km ) Precip ( " mm )
12:15 am 00:15 Clear 65 18.2 62 16.6 90 90 NNE 3 6 29.88 1012 10 16.0934 0 0
12:35 am 00:35 Clear 65 18.2 62 16.4 89 89 NNE 3 6 29.91 1013 10 16.0934 0 0
12:55 am 00:55 Clear 64 17.9 61 16.2 90 90 NNE 3 6 29.91 1013 10 16.0934 0 0
1:15 am 01:15 Clear 64 17.9 61 16.2 90 90 NNE 7 11 29.91 1013 10 16.0934 0 0
1:35 am 01:35 Clear 65 18.1 62 16.5 90 90 NE 6 9 29.91 1013 10 16.0934 0 0
1:55 am 01:55 Clear 65 18.2 62 16.5 90 90 ENE 6 9 29.91 1013 10 16.0934 0 0
2:15 am 02:15 Clear 66 18.7 62 16.5 87 87 E 5 7 29.85 1011 10 16.0934 0 0
2:35 am 02:35 Clear 65 18.4 61 16.2 87 87 ENE 6 9 29.88 1012 10 16.0934 0 0
2:55 am 02:55 Clear 65 18.3 61 16.1 87 87 E 5 7 29.85 1011 10 16.0934 0 0
3:15 am 03:15 Clear 64 17.6 60 15.7 89 89 E 3 6 29.88 1012 10 16.0934 0 0
3:35 am 03:35 Clear 64 17.7 60 15.6 88 88 ESE 5 7 29.85 1011 10 16.0934 0 0
3:55 am 03:55 Clear 63 17.2 60 15.4 89 89 E 3 6 29.85 1011 10 16.0934 0 0
4:15 am 04:15 Clear 65 18.1 61 15.9 87 87 E 5 7 29.85 1011 10 16.0934 0 0
4:35 am 04:35 Clear 64 17.7 60 15.6 88 88 ESE 5 7 29.85 1011 10 16.0934 0 0
4:55 am 04:55 Clear 63 17.1 60 15.4 90 90 E 5 7 29.85 1011 10 16.0934 0 0
5:15 am 05:15 Clear 64 17.6 60 15.8 89 89 E 5 7 29.85 1011 10 16.0934 0 0
5:35 am 05:35 Clear 64 17.5 60 15.7 89 89 ESE 6 9 29.83 1010 10 16.0934 0 0
5:55 am 05:55 Clear 63 17.3 60 15.7 90 90 ESE 6 9 29.83 1010 10 16.0934 0 0
6:15 am 06:15 Sunny 64 17.8 61 16.1 90 90 ESE 3 6 29.83 1010 10 16.0934 0 0
6:35 am 06:35 Partly Cloudy 64 17.8 61 16.2 90 90 NNE 7 11 29.88 1012 10 16.0934 0 0
6:55 am 06:55 Mostly Cloudy 65 18.4 62 16.7 90 90 NNE 20 31 29.91 1013 10 16.0934 0 0
7:15 am 07:15 Cloudy 67 19.5 63 17.2 87 87 NE 16 26 29.88 1012 10 16.0934 0 0
7:35 am 07:35 Cloudy 68 20 64 17.5 86 86 ENE 15 24 29.88 1012 10 16.0934 0 0
7:55 am 07:55 Cloudy 68 20.2 64 17.6 85 85 ENE 14 22 29.88 1012 10 16.0934 0 0
8:15 am 08:15 Partly Cloudy 69 20.5 64 17.8 85 85 ENE 13 20 29.88 1012 10 16.0934 0 0
8:35 am 08:35 Partly Cloudy 70 21.2 64 17.8 81 81 ENE 15 24 29.91 1013 10 16.0934 0 0
8:55 am 08:55 Mostly Cloudy 70 21.2 64 17.5 80 80 NNE 15 24 29.94 1014 10 16.0934 0 0
9:15 am 09:15 Cloudy 70 21.1 64 17.5 80 80 NE 15 24 29.91 1013 10 16.0934 0 0
9:35 am 09:35 Partly Cloudy 69 20.6 63 17.3 81 81 NE 10 17 29.91 1013 10 16.0934 0 0
9:55 am 09:55 Sunny 69 20.3 63 17.2 82 82 ENE 12 19 29.91 1013 10 16.0934 0 0
10:15 am 10:15 Sunny 69 20.3 63 17.2 82 82 E 5 7 29.91 1013 10 16.0934 0 0
10:35 am 10:35 Sunny 69 20.6 62 16.9 79 79 SE 28 44 29.8 1009 10 16.0934 0 0
10:55 am 10:55 Sunny 73 22.5 61 16 67 67 SSE 28 44 29.74 1007 10 16.0934 0 0
11:15 am 11:15 Sunny with Nearby Thunderstorms 75 23.9 60 15.6 60 60 ESE 14 22 29.8 1009 10 16.0934 0 0
11:35 am 11:35 Sunny 76 24.7 61 16 59 59 ENE 13 20 29.83 1010 10 16.0934 0 0
11:55 am 11:55 Sunny 78 25.5 62 16.8 59 59 NE 12 19 29.83 1010 10 16.0934 0 0
12:10 pm 12:10 Sunny 78 25.5 62 16.8 59 59 ENE 10 17 29.83 1010 10 16.0934 0 0
1:55 pm 13:55 undefined 81 27.1 65 18.3 59 59 ESE 8 13 29.77 1008 10 16.0934 0 0
2:15 pm 14:15 Sunny 81 27.2 66 18.7 60 60 E 10 17 29.77 1008 10 16.0934 0 0
2:35 pm 14:35 Sunny 82 27.6 66 19 59 59 SE 8 13 29.77 1008 10 16.0934 0 0
2:55 pm 14:55 Sunny 82 28 67 19.7 61 61 E 10 17 29.77 1008 10 16.0934 0 0
3:15 pm 15:15 Partly Cloudy 84 28.7 69 20.3 60 60 SE 8 13 29.77 1008 10 16.0934 0 0
3:35 pm 15:35 Partly Cloudy 83 28.2 68 20.1 61 61 SSE 8 13 29.77 1008 10 16.0934 0 0
3:55 pm 15:55 Partly Cloudy 83 28.6 69 20.6 62 62 SE 6 9 29.77 1008 10 16.0934 0 0
4:15 pm 16:15 Partly Cloudy 84 29 70 21.1 62 62 SSE 7 11 29.74 1007 10 16.0934 0 0
4:35 pm 16:35 Partly Cloudy 85 29.2 70 21 61 61 SSE 8 13 29.74 1007 10 16.0934 0 0
4:55 pm 16:55 Partly Cloudy 85 29.4 69 20.3 58 58 S 7 11 29.74 1007 10 16.0934 0 0
5:15 pm 17:15 Sunny 85 29.5 70 21.2 61 61 SE 8 13 29.71 1006 10 16.0934 0 0
5:35 pm 17:35 Sunny 85 29.7 70 21.2 60 60 SE 9 15 29.68 1005 10 16.0934 0 0
5:55 pm 17:55 Sunny 86 29.9 70 21.3 60 60 ESE 7 11 29.68 1005 10 16.0934 0 0
6:15 pm 18:15 Sunny 86 30 71 21.9 62 62 ESE 10 17 29.65 1004 10 16.0934 0 0
6:35 pm 18:35 Sunny 85 29.6 71 21.8 63 63 ESE 9 15 29.65 1004 10 16.0934 0 0
6:55 pm 18:55 Sunny 85 29.5 72 22.2 65 65 ESE 10 17 29.65 1004 10 16.0934 0 0
7:15 pm 19:15 Sunny 85 29.5 72 22.2 65 65 E 10 17 29.65 1004 10 16.0934 0 0
7:35 pm 19:35 Sunny 85 29.2 73 22.7 68 68 ESE 13 20 29.65 1004 10 16.0934 0 0
7:55 pm 19:55 Sunny 84 28.8 73 22.7 70 70 E 13 20 29.65 1004 10 16.0934 0 0
8:15 pm 20:15 Sunny 83 28.3 73 23 73 73 E 9 15 29.65 1004 10 16.0934 0 0
8:35 pm 20:35 Sunny 82 28 74 23.1 75 75 E 9 15 29.65 1004 10 16.0934 0 0
8:55 pm 20:55 Sunny 81 27.2 73 23 78 78 E 8 13 29.65 1004 10 16.0934 0 0
9:15 pm 21:15 Clear 79 26.3 73 23 82 82 E 9 15 29.65 1004 10 16.0934 0 0
9:35 pm 21:35 Clear 78 25.8 73 23 85 85 E 9 15 29.65 1004 10 16.0934 0 0
9:55 pm 21:55 Clear 78 25.3 73 23 87 87 E 7 11 29.65 1004 10 16.0934 0 0
10:15 pm 22:15 Clear 77 25.1 73 23 88 88 E 8 13 29.65 1004 10 16.0934 0 0
10:35 pm 22:35 Clear 77 25 73 22.7 87 87 SE 7 11 29.65 1004 10 16.0934 0 0
10:55 pm 22:55 Clear 77 24.8 72 22.3 86 86 SE 7 11 29.65 1004 10 16.0934 0 0
11:15 pm 23:15 Clear 77 25 71 21.5 81 81 SSE 7 11 29.65 1004 10 16.0934 0 0
11:35 pm 23:35 Clear 78 25.5 69 20.5 74 74 S 8 13 29.65 1004 10 16.0934 0 0
11:55 pm 23:55 Clear 80 26.4 67 19.3 65 65 S 13 20 29.65 1004 10 16.0934 0 0

Powered by AerisWeather